#timestamp,LO_Frequency,Hit,StdDev 
1558346415.7,286046998.1,N
1558346435.5,286046999.7,N
1558346455.4,286047000.3,N
1558346475.6,286047002.3,N
1558346495.4,286047000.5,N
1558346515.3,286046996.5,N
1558346535.1,286046998.4,N
1558346555.9,286046999.7,N
1558346575.7,286047001.0,N
1558346595.5,286046997.8,N
1558346615.4,286046998.0,N
1558346635.2,286046996.8,N
1558346655.0,286046998.7,N
1558346655.9,286046998.7,N
1558346675.8,286046998.2,N
1558346695.6,286046999.9,N
1558346715.5,286047000.0,N
1558346735.3,286047000.3,N
1558346755.1,286047001.7,N
1558346775.9,286047003.9,N
1558346795.7,286047002.3,N
1558346815.6,286047000.6,N
1558346835.4,286046998.5,N
1558346855.2,286046999.3,N
1558346875.1,286047002.6,N
1558346876.0,286047002.6,N
1558346895.8,286047001.7,N
1558346915.6,286046998.5,N
1558346935.5,286046998.3,N
1558346955.3,286046999.4,N
1558346975.2,286046998.6,N
1558346995.9,286046997.3,N
1558347015.7,286046999.6,N
1558347035.6,286046997.2,N
1558347055.4,286046997.0,N
1558347075.2,286046999.9,N
1558347095.1,286046998.1,N
1558347096.0,286046998.1,N
1558347115.8,286046996.8,N
1558347135.7,286046998.9,N
1558347155.5,286046998.4,N
1558347175.3,286047000.0,N
1558347195.2,286047002.3,N
1558347215.0,286047001.5,N
1558347215.9,286047001.5,N
1558347235.7,286047003.0,N
1558347255.6,286047001.4,N
1558347275.4,286046999.9,N
1558347295.3,286046998.5,N
1558347315.1,286046996.7,N
1558347316.0,286046996.7,N
1558347335.8,286046999.1,N
1558347355.7,286046998.4,N
1558347375.5,286046999.8,N
1558347395.3,286047000.2,N
1558347415.2,286046998.7,N
1558347435.0,286046997.3,N
1558347435.9,286046997.3,N
1558347455.8,286046999.2,N
1558347475.6,286046996.7,N
1558347495.4,286046997.2,N
1558347515.3,286046997.7,N
1558347535.1,286046994.9,N
1558347555.9,286046996.9,N
1558347575.7,286046997.4,N
1558347595.5,286046997.9,N
1558347615.4,286046997.3,N
1558347635.2,286046997.1,N
1558347655.0,286046999.3,N
1558347655.9,286046999.3,N
1558347675.8,286047001.0,N
1558347695.6,286047000.2,N
1558347715.5,286047002.8,N
1558347735.3,286046999.3,N
1558347755.1,286046996.9,N
1558347775.9,286046998.5,N
1558347795.7,286046999.9,N
1558347815.5,286046997.0,N
1558347835.4,286046998.4,N
1558347855.2,286046998.8,N
1558347875.3,286047000.8,N
1558347895.1,286047000.2,N
1558347915.9,286046999.4,N
1558347935.7,286046999.1,N
1558347955.5,286046997.2,N
1558347975.5,286046995.0,Y
1558347995.3,286046996.9,P
1558348015.1,286046999.3,N
1558348035.9,286047000.1,N
1558348055.7,286047001.4,N
1558348075.3,286046998.6,N
1558348095.1,286046998.7,N
1558348115.9,286046998.6,N
1558348135.7,286047004.0,Y
1558348155.6,286047003.0,P
1558348175.4,286047004.2,N
1558348195.2,286047002.3,N
1558348215.1,286047002.5,N
1558348216.0,286047002.5,N
1558348235.8,286047002.6,N
1558348255.6,286047000.0,N
1558348275.5,286046998.5,N
1558348295.3,286047001.9,N
1558348315.2,286047001.0,N
1558348335.9,286047001.6,N
1558348355.7,286047002.4,N
1558348375.6,286047001.9,N
1558348395.4,286047003.0,N
1558348415.2,286047002.2,N
1558348435.1,286047002.8,N
1558348436.0,286047002.8,N
1558348455.8,286047001.7,N
1558348475.7,286047001.5,N
1558348495.5,286047004.4,Y
1558348515.3,286047002.5,P
1558348535.2,286047003.1,P
1558348555.0,286047002.0,P
1558348555.9,286047002.0,Y
1558348575.8,286047000.1,P
1558348595.6,286046999.8,N
1558348615.4,286046999.9,N
1558348635.3,286046999.8,N
1558348655.1,286047000.0,N
1558348675.8,286047001.0,N
1558348695.7,286046997.2,Y
1558348715.5,286046998.8,P
1558348735.4,286046998.7,N
1558348755.2,286046996.8,P
1558348775.0,286047000.7,N
1558348775.9,286047000.7,N
1558348795.8,286047002.5,N
1558348815.6,286047002.2,N
1558348835.4,286047000.0,N
1558348855.3,286047001.3,N
1558348875.1,286047005.8,Y
1558348895.3,286047006.3,P
1558348915.2,286047007.0,N
1558348935.9,286047007.2,N
1558348955.7,286047005.4,N
1558348975.6,286047007.5,N
1558348995.4,286047005.6,N
1558349015.2,286047004.9,N
1558349035.1,286047004.7,N
1558349036.0,286047004.7,N
1558349055.8,286047005.5,N
1558349075.7,286047002.9,N
1558349095.5,286047002.9,N
1558349115.3,286047003.2,N
1558349135.2,286047001.9,N
1558349155.9,286047001.4,N
1558349175.7,286047001.9,N
1558349195.6,286047003.2,N
1558349215.4,286046999.7,N
1558349235.2,286047002.7,N
1558349255.1,286047000.0,N
1558349256.0,286047000.0,N
1558349275.8,286047000.9,N
1558349295.7,286047001.1,N
1558349315.5,286047002.8,N
1558349335.3,286046999.9,N
1558349355.2,286046998.2,N
1558349375.0,286046998.8,N
1558349375.9,286046998.8,N
1558349395.8,286046998.9,N
1558349445.6,286047000.1,E
1558349455.5,286046999.7,N
1558349475.4,286047000.1,P
1558349495.2,286047000.7,P
1558349515.1,286047000.4,N
1558349516.0,286047000.4,N
1558349535.8,286046999.7,N
1558349555.6,286047003.2,Y
1558349575.5,286047002.6,P
1558349595.3,286047001.2,N
1558349615.1,286046998.7,N
1558349635.9,286046996.9,N
1558349655.7,286046996.9,N
1558349675.6,286046996.8,N
1558349695.4,286046996.5,N
1558349715.2,286046999.3,N
1558349735.1,286047000.7,N
1558349736.0,286047000.7,N
1558349755.8,286047000.5,N
1558349775.6,286047000.7,N
1558349795.5,286046996.5,N
1558349815.3,286046995.4,N
1558349835.2,286046997.9,N
1558349855.9,286046995.0,N
1558349875.7,286046997.9,N
1558349895.6,286046997.0,N
1558349915.4,286046995.1,N
1558349935.2,286046995.9,N
1558349955.1,286046996.5,N
1558349956.0,286046996.5,N
1558349975.8,286046996.0,N
1558349995.7,286046996.0,N
